Regional Weather Roundup
Issued by NWS

Home | Current Version | Previous Version | Text Only | Print | Product List | Glossary Off
Versions: 1 2 3 4 5 6 7 8 9 10 11 12 13 14 15 16 17 18 19 20 21 22 23 24 25 26 27 28 29 30 31 32 33 34 35 36 37 38 39 40 41 42 43 44 45 46 47 48 49 50

000
ASUS43 KLMK 222010
RWRKY
KENTUCKY REGIONAL WEATHER ROUNDUP
NATIONAL WEATHER SERVICE LOUISVILLE KY
400 PM EDT FRI MAY 22 2015

NOTE "FAIR" INDICATES FEW OR NO CLOUDS BELOW 12,000 FEET
WITH NO SIGNIFICANT WEATHER AND/OR OBSTRUCTIONS TO VISIBILITY.

KYZ001>023-026-027-061>063-070>075-222100-
WESTERN AND SOUTH CENTRAL KENTUCKY

CITY           SKY/WX    TMP DP  RH WIND       PRES   REMARKS
PADUCAH        MOSUNNY   73  46  38 VRB3      30.26F
HENDERSON      MOSUNNY   73  52  46 SW7       30.24S
OWENSBORO      SUNNY     74  49  41 SW9       30.26F
HOPKINSVILLE   MOSUNNY   71  49  45 N6        30.27S
BOWLING GREEN  SUNNY     73  43  33 VRB6      30.26F
GLASGOW        SUNNY     71  43  36 W6        30.27S
$$

KYZ024-025-028>034-038-045-046-053-222100-
NORTH CENTRAL KENTUCKY

CITY           SKY/WX    TMP DP  RH WIND       PRES   REMARKS
LOUISVILLE/SDF PTSUNNY   75  45  34 SW12      30.24F
LOUISVILLE/LOU SUNNY     73  44  35 S9        30.24F
FORT KNOX      SUNNY     73  46  38 SW3       30.24F
$$

KYZ035>037-039>044-047>052-055>060-089>105-222100-
NORTHEAST KENTUCKY

CITY           SKY/WX    TMP DP  RH WIND       PRES   REMARKS
LEXINGTON      SUNNY     71  42  35 SW6       30.25F
COVINGTON      MOSUNNY   72  48  42 SW8G22    30.21F
FRANKFORT      SUNNY     73  42  32 SW13G18   30.23F
$$

KYZ054-064>069-076>088-106>120-222100-
SOUTHEAST KENTUCKY

CITY           SKY/WX    TMP DP  RH WIND       PRES   REMARKS
JACKSON        SUNNY     68  42  38 VRB5      30.27S
LONDON         SUNNY     71  37  28 N5        30.27S
SOMERSET       SUNNY     68  41  37 NW3       30.28F
MIDDLESBORO    SUNNY     70  43  38 NW7       30.27S
MONTICELLO     CLEAR     72  41  32 NW3       30.30F
$$



USA.gov is the U.S. government's official web portal to all federal, state and local government web resources and services.